Location: Newark
(59.4564°N, 26.6917°E)
Time: 21:02:14
(UTC+00:00)

S-56A Canister/Altair - Pass Details

Date: 18 November 2019
Orbit: 633 x 2500 km, 38.9° (Epoch: 08 December)

Event Time Altitude Azimuth Distance (km) Brightness Sun altitude
Rises 16:02:42 0° 217° (SW) 4,704 12.3 -17.0°
Reaches altitude 10° 16:09:10 10° 186° (S) 3,173 10.8 -17.9°
Maximum altitude 16:10:58 11° 172° (S) 2,950 10.5 -18.1°
Drops below altitude 10° 16:12:38 10° 158° (SSE) 2,880 10.3 -18.3°
Enters shadow 16:14:43 - 141° (SE) 2,995 10.2 -18.6°
Sets 16:17:23 0° 123° (ESE) 3,444 - -18.9°
